{"data":{"norad_id":59184,"epoch":"2026-09-20T22:06:48.908160Z","epoch_age_seconds":122458,"freshness":"FRESH","line1":"1 59184U 24045G   26263.92139940  .00004257  00000+0  16427-3 0  9998","line2":"2 59184  43.0082  69.6265 0002544 273.0253  87.0308 15.27556734143028","mean_motion":15.27556734,"eccentricity":0.0002544,"inclination_deg":43.0082,"raan_deg":69.6265,"arg_perigee_deg":273.0253,"mean_anomaly_deg":87.0308,"bstar":0.00016427,"rev_number":14302,"period_min":94.268184477134,"perigee_km":481.3732602315,"apogee_km":484.86426716407,"semimajor_km":6861.2557636978,"source":"CELESTRAK","updated_at":"2026-09-21T09:00:34.062744Z"}}